Location: Corona
(40.7470°N, 73.8601°W)
Time: 00:56:33
(UTC+00:00)

HJ-1C - Pass Details

Date: 22 September 2019
Orbit: 434 x 449 km, 97.2° (Epoch: 21 October)

Event Time Altitude Azimuth Distance (km) Brightness Sun altitude
Exits shadow 23:34:25 - 147° (SSE) 2,244 6.5 -8.7°
Reaches altitude 10° 23:36:05 10° 139° (SE) 1,570 5.7 -9.0°
Maximum altitude 23:39:09 34° 73° (ENE) 767 4.1 -9.6°
Drops below altitude 10° 23:42:16 10° 7° (N) 1,587 6.2 -10.1°
Sets 23:44:25 0° 358° (N) 2,465 7.3 -10.5°
